This is the latest recevied weather packets stored in our database for station/object W8RSN-13. If no packets are shown the sender has not sent any weather packets the latest 10 day(s).
| Time | Temp. | Humidity | Pressure | Rain* | Wind** | Luminosity | Snow |
|---|---|---|---|---|---|---|---|
| 1787931574 | 29.44° C | 51% | 1014.9 hPa | - | - | - | - |
| 1787931273 | 30° C | 51% | 1014.7 hPa | - | - | - | - |
| 1787930972 | 29.44° C | 52% | 1014.9 hPa | - | - | - | - |
| 1787930671 | 28.89° C | 52% | 1014.9 hPa | - | - | - | - |
| 1787930370 | 28.33° C | 53% | 1014.8 hPa | - | - | - | - |
| 1787930069 | 28.33° C | 55% | 1014.9 hPa | - | - | - | - |
| 1787929768 | 27.78° C | 55% | 1014.8 hPa | - | - | - | - |
| 1787929467 | 27.78° C | 55% | 1015 hPa | - | - | - | - |
| 1787929167 | 27.78° C | 56% | 1014.9 hPa | - | - | - | - |
| 1787928866 | 27.22° C | 57% | 1014.9 hPa | - | - | - | - |
| 1787928565 | 26.67° C | 57% | 1014.8 hPa | - | - | - | - |
| 1787928264 | 26.67° C | 57% | 1014.6 hPa | - | - | - | - |
| 1787927963 | 26.67° C | 57% | 1014.5 hPa | - | - | - | - |
| 1787927662 | 27.22° C | 56% | 1014.5 hPa | - | - | - | - |
| 1787927361 | 27.22° C | 56% | 1014.5 hPa | - | - | - | - |
| 1787927060 | 26.67° C | 58% | 1014.5 hPa | - | - | - | - |
| 1787926760 | 26.11° C | 59% | 1014.5 hPa | - | - | - | - |
| 1787926459 | 25.56° C | 58% | 1014.5 hPa | - | - | - | - |
| 1787926158 | 25° C | 61% | 1014.3 hPa | - | - | - | - |
| 1787925857 | 24.44° C | 61% | 1014.2 hPa | - | - | - | - |
| 1787925556 | 24.44° C | 64% | 1014.4 hPa | - | - | - | - |
| 1787925275 | 23.89° C | 64% | 1014.3 hPa | - | - | - | - |
| 1787924974 | 23.33° C | 65% | 1014.2 hPa | - | - | - | - |
| 1787924673 | 23.89° C | 66% | 1014.3 hPa | - | - | - | - |
| 1787924372 | 23.89° C | 63% | 1014.3 hPa | - | - | - | - |
* Rain since midnight (hover to see other rain measurements)
** Current wind speed in m/s (hover to see current wind gust speed)